• En España
  • Lista de países
  • Para 7 días
  • Temperatura del agua
  • Mapa Satelital
  • El tiempo en el mapa
  • Informadores
  • user-avatar
    Iniciar sesión

    Tiempo cada hora Bolshoy Serdezh

    Hoy, 21 Agosto, Martes

    Tiempo Temperatura Precipitaciones Viento Presión Humedad
    00:00 +17°C° 0,1 mm 2 mps 747 mmHg 94%
    01:00 +17°C° 0,1 mm 2 mps 747 mmHg 95%
    02:00 +16°C° 0,1 mm 2 mps 746 mmHg 95%
    03:00 +16°C° 0 mm 2 mps 746 mmHg 96%
    04:00 +17°C° 0,2 mm 2 mps 746 mmHg 96%
    05:00 +17°C° 0,2 mm 2 mps 746 mmHg 95%
    06:00 +17°C° 0,2 mm 2 mps 746 mmHg 95%
    07:00 +18°C° 0,2 mm 2 mps 746 mmHg 90%
    08:00 +19°C° 0,2 mm 3 mps 746 mmHg 86%
    09:00 +21°C° 0,2 mm 3 mps 746 mmHg 81%
    10:00 +22°C° 0,3 mm 3 mps 746 mmHg 77%
    11:00 +22°C° 0,3 mm 4 mps 745 mmHg 73%
    12:00 +23°C° 0,3 mm 4 mps 745 mmHg 70%
    13:00 +25°C° 0,2 mm 4 mps 745 mmHg 67%
    14:00 +25°C° 0,2 mm 4 mps 744 mmHg 65%
    15:00 +26°C° 0,2 mm 4 mps 744 mmHg 62%
    16:00 +25°C° 0,1 mm 4 mps 743 mmHg 66%
    17:00 +25°C° 0,1 mm 4 mps 743 mmHg 69%
    18:00 +23°C° 0,1 mm 4 mps 742 mmHg 73%
    19:00 +22°C° 0,3 mm 4 mps 742 mmHg 75%
    20:00 +21°C° 0,3 mm 4 mps 742 mmHg 78%
    21:00 +20°C° 0,3 mm 5 mps 741 mmHg 80%
    22:00 +20°C° 0,3 mm 4 mps 741 mmHg 82%
    23:00 +19°C° 0,3 mm 4 mps 740 mmHg 83%

    Mañana, 22 Agosto, Miércoles

    Tiempo Temperatura Precipitaciones Viento Presión Humedad
    00:00 +19°C° 0,3 mm 4 mps 740 mmHg 85%
    01:00 +19°C° 0,6 mm 4 mps 740 mmHg 87%
    02:00 +18°C° 0,6 mm 4 mps 740 mmHg 89%
    03:00 +18°C° 0,6 mm 4 mps 740 mmHg 91%
    04:00 +17°C° 1 mm 4 mps 740 mmHg 92%
    05:00 +15°C° 1 mm 4 mps 740 mmHg 92%
    06:00 +15°C° 1 mm 4 mps 741 mmHg 93%
    07:00 +15°C° 0,1 mm 4 mps 741 mmHg 89%
    08:00 +14°C° 0,1 mm 4 mps 741 mmHg 84%
    09:00 +14°C° 0,1 mm 4 mps 741 mmHg 80%
    10:00 +15°C° 0 mm 4 mps 742 mmHg 73%
    11:00 +17°C° 0 mm 5 mps 742 mmHg 66%
    12:00 +19°C° 0 mm 5 mps 742 mmHg 59%
    13:00 +19°C° 0 mm 5 mps 742 mmHg 58%
    14:00 +19°C° 0 mm 5 mps 742 mmHg 58%
    15:00 +19°C° 0 mm 5 mps 743 mmHg 57%
    16:00 +17°C° 0,1 mm 5 mps 743 mmHg 63%
    17:00 +17°C° 0,1 mm 4 mps 743 mmHg 68%
    18:00 +15°C° 0,1 mm 4 mps 744 mmHg 74%
    19:00 +14°C° 0 mm 4 mps 744 mmHg 77%
    20:00 +13°C° 0 mm 4 mps 745 mmHg 79%
    21:00 +12°C° 0 mm 4 mps 745 mmHg 82%
    22:00 +11°C° 0 mm 4 mps 746 mmHg 84%
    23:00 +11°C° 0 mm 4 mps 746 mmHg 86%

    Pasado mañana, 23 Agosto, Jueves

    Tiempo Temperatura Precipitaciones Viento Presión Humedad
    00:00 +10°C° 0 mm 4 mps 746 mmHg 87%
    01:00 +10°C° 0 mm 4 mps 747 mmHg 88%
    02:00 +8°C° 0 mm 4 mps 747 mmHg 90%
    03:00 +8°C° 0 mm 4 mps 748 mmHg 91%
    04:00 +8°C° 0 mm 4 mps 748 mmHg 89%
    05:00 +8°C° 0 mm 5 mps 749 mmHg 87%
    06:00 +8°C° 0 mm 5 mps 749 mmHg 86%
    07:00 +9°C° 0 mm 5 mps 749 mmHg 78%
    08:00 +10°C° 0 mm 6 mps 750 mmHg 70%
    09:00 +13°C° 0 mm 6 mps 750 mmHg 62%
    10:00 +13°C° 0 mm 6 mps 750 mmHg 60%
    11:00 +14°C° 0 mm 6 mps 750 mmHg 58%
    12:00 +15°C° 0 mm 7 mps 750 mmHg 55%
    13:00 +15°C° 0 mm 7 mps 750 mmHg 55%
    14:00 +16°C° 0 mm 6 mps 750 mmHg 55%
    15:00 +16°C° 0 mm 6 mps 750 mmHg 54%
    16:00 +15°C° 0 mm 5 mps 750 mmHg 58%
    17:00 +15°C° 0 mm 4 mps 751 mmHg 62%
    18:00 +14°C° 0 mm 3 mps 751 mmHg 66%
    19:00 +13°C° 0 mm 3 mps 751 mmHg 69%
    20:00 +12°C° 0 mm 3 mps 751 mmHg 72%
    21:00 +11°C° 0 mm 3 mps 751 mmHg 75%
    22:00 +10°C° 0 mm 3 mps 751 mmHg 75%
    23:00 +10°C° 0 mm 3 mps 751 mmHg 75%

    24 Agosto, Viernes

    Tiempo Temperatura Precipitaciones Viento Presión Humedad
    00:00 +10°C° 0 mm 3 mps 751 mmHg 76%
    01:00 +10°C° 0,1 mm 3 mps 751 mmHg 77%
    02:00 +10°C° 0,1 mm 3 mps 751 mmHg 79%
    03:00 +11°C° 0,1 mm 3 mps 751 mmHg 80%
    04:00 +11°C° 0,4 mm 3 mps 751 mmHg 84%
    05:00 +11°C° 0,4 mm 3 mps 751 mmHg 88%
    06:00 +11°C° 0,4 mm 3 mps 751 mmHg 92%
    07:00 +12°C° 0,1 mm 3 mps 751 mmHg 90%
    08:00 +12°C° 0,1 mm 3 mps 751 mmHg 89%
    09:00 +13°C° 0,1 mm 3 mps 751 mmHg 87%
    10:00 +14°C° 0 mm 4 mps 751 mmHg 86%
    11:00 +15°C° 0 mm 4 mps 751 mmHg 84%
    12:00 +17°C° 0 mm 4 mps 751 mmHg 82%
    13:00 +17°C° 0 mm 4 mps 751 mmHg 80%
    14:00 +18°C° 0 mm 4 mps 751 mmHg 77%
    15:00 +19°C° 0 mm 4 mps 751 mmHg 75%
    16:00 +18°C° 0 mm 3 mps 751 mmHg 78%
    17:00 +18°C° 0 mm 3 mps 751 mmHg 80%
    18:00 +18°C° 0 mm 2 mps 751 mmHg 83%
    19:00 +17°C° 0 mm 2 mps 752 mmHg 86%
    20:00 +16°C° 0 mm 1 mps 752 mmHg 89%
    21:00 +15°C° 0 mm 1 mps 752 mmHg 92%
    22:00 +14°C° 0 mm 1 mps 752 mmHg 92%
    23:00 +14°C° 0 mm 1 mps 752 mmHg 92%

    25 Agosto, Sábado

    Tiempo Temperatura Precipitaciones Viento Presión Humedad
    00:00 +13°C° 0 mm 0 mps 753 mmHg 92%
    01:00 +13°C° 0 mm 1 mps 753 mmHg 92%
    02:00 +13°C° 0 mm 1 mps 753 mmHg 93%
    03:00 +13°C° 0 mm 1 mps 753 mmHg 93%
    04:00 +14°C° 0 mm 1 mps 753 mmHg 92%
    05:00 +14°C° 0 mm 1 mps 754 mmHg 91%
    06:00 +15°C° 0 mm 1 mps 754 mmHg 91%
    07:00 +16°C° 0 mm 1 mps 754 mmHg 84%
    08:00 +19°C° 0 mm 1 mps 754 mmHg 78%
    09:00 +21°C° 0 mm 1 mps 754 mmHg 72%
    10:00 +22°C° 0 mm 1 mps 754 mmHg 68%
    11:00 +23°C° 0 mm 1 mps 754 mmHg 64%
    12:00 +24°C° 0 mm 2 mps 754 mmHg 61%
    13:00 +25°C° 0 mm 2 mps 754 mmHg 60%
    14:00 +25°C° 0 mm 2 mps 754 mmHg 58%
    15:00 +25°C° 0 mm 2 mps 754 mmHg 57%
    16:00 +24°C° 0 mm 2 mps 754 mmHg 62%
    17:00 +23°C° 0 mm 1 mps 753 mmHg 67%
    18:00 +22°C° 0 mm 1 mps 753 mmHg 72%
    19:00 +21°C° 0 mm 1 mps 754 mmHg 75%
    20:00 +19°C° 0 mm 1 mps 754 mmHg 79%
    21:00 +18°C° 0 mm 1 mps 754 mmHg 82%
    22:00 +16°C° 0 mm 1 mps 754 mmHg 83%
    23:00 +16°C° 0 mm 1 mps 754 mmHg 84%

    26 Agosto, Domingo

    Tiempo Temperatura Precipitaciones Viento Presión Humedad
    00:00 +16°C° 0 mm 1 mps 754 mmHg 85%
    01:00 +15°C° 0 mm 1 mps 754 mmHg 86%
    02:00 +15°C° 0 mm 1 mps 754 mmHg 86%
    03:00 +15°C° 0 mm 1 mps 755 mmHg 87%
    04:00 +15°C° 0 mm 1 mps 755 mmHg 86%
    05:00 +15°C° 0 mm 1 mps 755 mmHg 84%
    06:00 +15°C° 0 mm 0 mps 755 mmHg 83%
    07:00 +17°C° 0 mm 0 mps 755 mmHg 76%
    08:00 +19°C° 0 mm 0 mps 755 mmHg 69%
    09:00 +21°C° 0 mm 0 mps 755 mmHg 63%
    10:00 +24°C° 0 mm 1 mps 755 mmHg 59%
    11:00 +25°C° 0 mm 1 mps 755 mmHg 54%
    12:00 +26°C° 0 mm 1 mps 755 mmHg 50%
    13:00 +26°C° 0 mm 1 mps 755 mmHg 50%
    14:00 +26°C° 0 mm 1 mps 755 mmHg 49%
    15:00 +26°C° 0 mm 1 mps 755 mmHg 48%
    16:00 +25°C° 0 mm 1 mps 754 mmHg 54%
    17:00 +24°C° 0 mm 1 mps 754 mmHg 59%
    18:00 +23°C° 0 mm 1 mps 754 mmHg 65%
    19:00 +21°C° 0 mm 1 mps 754 mmHg 68%
    20:00 +20°C° 0 mm 1 mps 755 mmHg 70%
    21:00 +19°C° 0 mm 1 mps 755 mmHg 73%
    22:00 +18°C° 0 mm 1 mps 755 mmHg 74%
    23:00 +18°C° 0 mm 1 mps 755 mmHg 76%
    Mostrar más